Location: La Fredeussais
(48.1780°N, 1.3980°W)
Time: 12:02:02
(UTC+00:00)

PRISM - Pass Details

Date: 02 November 2021
Orbit: 561 x 584 km, 98.2° (Epoch: 29 November)

Event Time Altitude Azimuth Distance (km) Brightness Sun altitude
Rises 03:59:53 0° 16° (NNE) 2,791 ? -29.1°
Reaches altitude 10° 04:02:04 10° 19° (NNE) 1,884 ? -28.7°
Enters shadow 04:03:50 25° 25° (NNE) 1,181 ? -28.5°
